Volver al catálogo

COSMOS 2251 DEB

ActivoLEO
NORAD 35435·DEBRIS·🇷🇺 Russia

Lanzado Jun 16, 1993 desde Plesetsk Cosmodrome

Loading…

Próximos Pases (próximas 24 horas)

TLE

ActualizadoSource: Space-Track

Época: Sep 13, 2026, 08:28 UTC

1 35435U 93036AKD 26256.35296887  .00007526  00000-0  86248-3 0  9991
2 35435  74.0060 279.9505 0014155 302.2802  70.3568 14.86011993916095

Sigue COSMOS 2251 DEB en tiempo real con AllMySat

Download on the App Store